Location: ??
(35.1715°N, 139.6450°E)
Time: 22:03:26
(UTC+00:00)

USA 281 - Visible Passes

Search period start: 05 November 2024 00:00
Search period end: 15 November 2024 00:00
Orbit: 1078 x 1081 km, 106.0° (Epoch: 04 November)

Date Brightness Start Highest point End Pass type
(mag) Time Alt. Az. Time Alt. Az. Time Alt. Az.
05 Nov 3.2 08:57:12 10° NNE 09:03:49 90° WNW 09:10:24 10° SSW visible
05 Nov 5.6 10:43:42 10° NNW 10:47:26 16° NW 10:51:10 10° W visible
05 Nov 5.8 17:28:24 10° ENE 17:30:31 12° NE 17:32:37 10° NNE visible
05 Nov 3.5 19:07:21 10° SE 19:13:50 67° ENE 19:20:21 10° NNW visible
06 Nov 3.8 08:08:09 10° NE 08:14:08 36° ESE 08:20:04 10° S visible
06 Nov 4.5 09:52:35 10° N 09:58:31 37° WNW 10:04:26 10° SW visible
06 Nov 4.9 18:19:14 10° ESE 18:24:38 28° ENE 18:30:05 10° N visible
06 Nov 3.4 20:02:29 10° S 20:08:47 50° WSW 20:15:08 10° NNW visible
07 Nov 3.2 09:02:35 10° NNE 09:09:12 89° WNW 09:15:46 10° SSW visible
07 Nov 5.6 10:49:06 10° NNW 10:52:48 16° NW 10:56:30 10° W visible
07 Nov 5.8 17:33:42 10° ENE 17:35:52 12° NE 17:38:04 10° NNE visible
07 Nov 3.5 19:12:44 10° SE 19:19:12 68° ENE 19:25:44 10° NNW visible
08 Nov 3.8 08:13:31 10° NE 08:19:31 37° ESE 08:25:28 10° S visible
08 Nov 4.5 09:57:58 10° N 10:03:53 37° WNW 10:09:48 10° WSW visible
08 Nov 4.9 18:24:35 10° ESE 18:30:01 29° ENE 18:35:27 10° N visible
08 Nov 3.4 20:07:53 10° S 20:14:09 49° WSW 20:20:30 10° NW visible
09 Nov 3.2 09:07:58 10° NNE 09:14:34 88° WNW 09:21:08 10° SSW visible
09 Nov 5.6 10:54:30 10° NNW 10:58:10 16° NW 11:01:49 10° W visible
09 Nov 5.8 17:38:59 10° ENE 17:41:14 12° NE 17:43:29 10° NNE visible
09 Nov 3.5 19:18:06 10° SE 19:24:35 69° ENE 19:31:07 10° NNW visible
10 Nov 3.8 08:18:53 10° NE 08:24:54 37° ESE 08:30:51 10° S visible
10 Nov 4.5 10:03:21 10° N 10:09:15 37° WNW 10:15:09 10° WSW visible
10 Nov 4.9 18:29:56 10° ESE 18:35:24 29° ENE 18:40:51 10° N visible
10 Nov 3.5 20:13:15 10° S 20:19:32 49° WSW 20:25:52 10° NW visible
11 Nov 3.2 09:13:20 10° NNE 09:19:57 87° WNW 09:26:31 10° SSW visible
11 Nov 5.6 10:59:55 10° NNW 11:03:32 16° NW 11:07:09 10° W visible
11 Nov 5.8 17:44:17 10° ENE 17:46:37 12° NE 17:48:56 10° NNE visible
11 Nov 3.5 19:23:28 10° SSE 19:29:58 69° ENE 19:36:29 10° NNW visible
12 Nov 3.7 08:24:14 10° NE 08:30:16 37° ESE 08:36:15 10° S visible
12 Nov 4.5 10:08:44 10° N 10:14:38 36° WNW 10:20:30 10° WSW visible
12 Nov 4.8 18:35:17 10° ESE 18:40:45 29° ENE 18:46:14 10° N visible
12 Nov 3.5 20:18:39 10° S 20:24:55 48° WSW 20:31:14 10° NW visible
13 Nov 3.2 09:18:43 10° NNE 09:25:19 87° WNW 09:31:53 10° SSW visible
13 Nov 5.6 11:05:19 10° NNW 11:08:54 15° NW 11:12:29 10° W visible
13 Nov 5.8 17:49:34 10° ENE 17:51:58 12° NE 17:54:21 10° NNE visible
13 Nov 3.4 19:28:50 10° SSE 19:35:19 70° ENE 19:41:52 10° NNW visible
14 Nov 3.7 08:29:36 10° NE 08:35:38 38° ESE 08:41:38 10° S visible
14 Nov 4.5 10:14:30 12° N 10:20:00 36° WNW 10:25:52 10° WSW visible
14 Nov 4.8 18:40:38 10° ESE 18:46:07 29° ENE 18:51:37 10° N visible
14 Nov 3.5 20:24:02 10° S 20:30:18 48° WSW 20:36:36 10° NW visible
